This is the latest recevied weather packets stored in our database for station/object S51UL-6. If no packets are shown the sender has not sent any weather packets the latest 10 day(s).
| Time | Temp. | Humidity | Pressure | Rain* | Wind** | Luminosity | Snow |
|---|---|---|---|---|---|---|---|
| 1787411955 | 22.78° C | 64% | 1018.1 hPa | 1.52 mm | - | - | - |
| 1787411655 | 22.78° C | 64% | 1018 hPa | 1.52 mm | - | - | - |
| 1787411355 | 22.78° C | 64% | 1017.9 hPa | 1.52 mm | - | - | - |
| 1787410801 | 22.78° C | 64% | 1018.1 hPa | 1.52 mm | - | - | - |
| 1787410756 | 22.78° C | 64% | 1018.1 hPa | 1.52 mm | - | - | - |
| 1787410455 | 22.78° C | 64% | 1018.1 hPa | 1.52 mm | - | - | - |
| 1787409856 | 22.78° C | 64% | 1018.2 hPa | 2.03 mm | - | - | - |
| 1787409256 | 22.78° C | 64% | 1018.3 hPa | 1.52 mm | - | - | - |
| 1787407757 | 23.33° C | 65% | 1018 hPa | 1.02 mm | - | - | - |
| 1787407156 | 23.33° C | 66% | 1018.1 hPa | 1.52 mm | - | - | - |
| 1787406855 | 22.78° C | 67% | 1018 hPa | 1.52 mm | - | - | - |
| 1787406556 | 22.78° C | 66% | 1017.9 hPa | 1.02 mm | - | - | - |
| 1787405657 | 22.78° C | 65% | 1018 hPa | 1.02 mm | - | - | - |
| 1787405357 | 22.78° C | 65% | 1018 hPa | 0.51 mm | - | - | - |
| 1787405057 | 22.78° C | 66% | 1017.9 hPa | 0.51 mm | - | - | - |
| 1787404756 | 22.78° C | 65% | 1017.7 hPa | 0.51 mm | - | - | - |
| 1787404456 | 23.33° C | 65% | 1017.7 hPa | 0.51 mm | - | - | - |
| 1787403256 | 22.78° C | 66% | 1017.8 hPa | 0 mm | - | - | - |
| 1787402957 | 22.78° C | 66% | 1017.8 hPa | 0 mm | - | - | - |
| 1787402357 | 22.78° C | 66% | 1017.7 hPa | 0 mm | - | - | - |
| 1787402056 | 22.78° C | 66% | 1017.8 hPa | 0 mm | - | - | - |
| 1787401458 | 23.33° C | 67% | 1017.6 hPa | 0 mm | - | - | - |
| 1787401156 | 22.78° C | 67% | 1017.7 hPa | 0.51 mm | - | - | - |
| 1787400858 | 22.78° C | 66% | 1017.8 hPa | 0.51 mm | - | - | - |
| 1787399357 | 22.78° C | 68% | 1017.8 hPa | 2.03 mm | - | - | - |
* Rain latest hour (hover to see other rain measurements)
** Current wind speed in m/s (hover to see current wind gust speed)